[[{"header":{"parameterUnit":"m.s-1","parameterCategory":2,"la1":30.2991,"la2":30.254,"lo1":-89.0895,"lo2":-89.0444,"dy":0.0017,"dx":0.0017,"nx":28,"ny":28,"refTime":"2024-03-12T03:00:00:Z","depth":"0","parameterNumber":2,"parameterNumberName":"U-component_of_CURRENTS"},"data":[0,0,0,0,0,0,0,0,0,0,0,0,0,0,0,0,0,0,0,0,0,0,0,0,0,0,0,0,0,0,0,0,0,0,0,0,0,0,0,0,0,0,0,0,0,0,0,0,0,0,0,0,0,0,0,0,0,0,0.2287,0.2287,0,0.2324,0.2324,0.2324,0.2321,0.2321,0.2321,0.2321,0.2308,0.2308,0.2307,0,0,0,0,0,0,0,0,0,0,0,0,0,0.2199,0.22,0.2287,0.2287,0.2288,0.2324,0.2324,0.2324,0.2321,0.2321,0.2321,0.2321,0.2308,0.2308,0.2307,0,0,0,0,0,0,0,0,0,0,0,0,0,0.2232,0.2201,0.2286,0.2295,0.2296,0.2324,0.2324,0.2324,0.2321,0.2321,0.2321,0.2321,0.2308,0.2308,0.2307,0.231,0,0,0.2306,0.2306,0,0,0,0,0,0,0,0,0.2231,0.2235,0.2292,0.2294,0.2296,0.2322,0.2289,0.2319,0.2321,0.2307,0.2321,0.2321,0.2311,0.231,0.2312,0.2309,0.2309,0.2306,0.2306,0.2306,0.2306,0,0,0,0,0,0,0,0.2228,0.2233,0.2297,0.2294,0.2296,0.2292,0.2296,0.2294,0.2305,0.2308,0.2309,0.2321,0.2311,0.2312,0.2312,0.2308,0.2306,0.2306,0.2306,0.2306,0.231,0.231,0,0,0,0,0,0,0.2234,0.2232,0.2296,0.2298,0.2267,0.2294,0.2299,0.231,0.2306,0.2307,0.2321,0.2321,0.2313,0.2312,0.2311,0.2335,0.2306,0.2306,0.2305,0.2309,0.231,0.231,0,0,0,0,0,0,0.2232,0.2239,0.2294,0.2269,0.2277,0.2297,0.2309,0.2311,0.232,0.2318,0.2316,0.233,0.2313,0.2312,0.2315,0.2333,0.2306,0.2305,0.2309,0.231,0.231,0.2368,0,0,0,0,0,0,0.2229,0.2238,0.2242,0.227,0.2278,0.2321,0.231,0.2312,0.233,0.233,0.2325,0.2323,0.2313,0.2316,0.2315,0.2332,0.2305,0.2309,0.2309,0.231,0.2366,0.2371,0.2375,0,0,0,0,0,0.2226,0.2235,0.2242,0.225,0.2285,0.2323,0.2327,0.2336,0.2331,0.2342,0.2333,0.2323,0.2318,0.2316,0.2315,0.2333,0.2308,0.2309,0.231,0.2364,0.237,0.2374,0,0,0,0,0,0,0.2197,0.2237,0.2245,0.2265,0.2298,0.2324,0.2339,0.2343,0.2346,0.2344,0.233,0.2328,0.2342,0.2324,0.2321,0.2333,0.2311,0.2311,0.2352,0.2357,0.2362,0.2388,0.2305,0,0,0,0,0,0.2195,0.2211,0.2254,0.2268,0.2292,0.2316,0.233,0.2341,0.2352,0.2354,0.2348,0.234,0.2343,0.2339,0.2339,0.2343,0.2384,0.2351,0.2356,0.2359,0.2379,0.246,0.2475,0.2312,0.2312,0.2312,0,0,0.2183,0.2211,0.2217,0.2263,0.2291,0.2322,0.2323,0.2357,0.2369,0.2351,0.2359,0.2361,0.2349,0.236,0.2363,0.2346,0.2429,0.236,0.2364,0.2382,0.2463,0.2479,0.2494,0.2313,0.2313,0.2313,0,0,0.218,0.2205,0.2223,0.2255,0.2306,0.2329,0.2342,0.2377,0.2382,0.2395,0.2389,0.2405,0.2392,0.24,0.2398,0.2425,0.2456,0.2415,0.2453,0.2532,0.2547,0.2561,0.2649,0.267,0.2408,0.2408,0.2409,0,0.2167,0.2201,0.2233,0.2266,0.2293,0.2334,0.2364,0.238,0.2402,0.2418,0.2402,0.2429,0.2416,0.245,0.2455,0.2439,0.2494,0.2437,0.2542,0.2556,0.257,0.2656,0.2679,0.2411,0.2411,0.2411,0.241,0,0.2193,0.2212,0.2234,0.2287,0.2313,0.2355,0.2391,0.2415,0.2428,0.2447,0.2488,0.2485,0.2509,0.2499,0.2483,0.2562,0.2577,0.255,0.2538,0.259,0.2677,0.27,0.2415,0.2414,0.2414,0.2413,0,0,0.2208,0.2241,0.2252,0.2277,0.2334,0.237,0.2395,0.2451,0.2495,0.2507,0.2566,0.2565,0.2592,0.2593,0.2587,0.2638,0.2774,0.2635,0.2638,0.274,0.2976,0.2956,0.2979,0.2775,0.2779,0.2782,0.3006,0,0.2232,0.2279,0.2282,0.2332,0.2381,0.2405,0.2438,0.2483,0.252,0.2587,0.2609,0.2664,0.2619,0.2653,0.2699,0.2764,0.2834,0.2717,0.2895,0.29,0.2891,0.3005,0.2865,0.305,0.3028,0.3032,0.3035,0,0.2292,0.2316,0.2351,0.2392,0.2415,0.2437,0.2525,0.2552,0.2638,0.2671,0.2729,0.2763,0.2849,0.2802,0.2955,0.2889,0.2946,0.2983,0.2992,0.2972,0.2923,0.2989,0.3092,0.2985,0.307,0.3067,0.3064,0,0.2348,0.238,0.2407,0.2423,0.2466,0.2484,0.2517,0.259,0.2639,0.2746,0.2821,0.2902,0.2986,0.3057,0.3125,0.3067,0.3305,0.3231,0.3271,0.327,0.3185,0.317,0.3218,0.3361,0.336,0.336,0.3359,0,0.2402,0.2427,0.2438,0.2459,0.2512,0.2532,0.2603,0.2644,0.2741,0.2814,0.2882,0.2973,0.3061,0.3185,0.3212,0.3336,0.3386,0.3326,0.3341,0.3199,0.3184,0.3109,0.3054,0.3368,0.3366,0.3365,0.3363,0,0.2447,0.2446,0.2487,0.2522,0.2535,0.2577,0.2639,0.2684,0.2796,0.2901,0.2949,0.3097,0.3246,0.3334,0.3481,0.3472,0.3473,0.359,0.3424,0.3415,0.3302,0.3255,0.3263,0.3167,0.3677,0.3678,0.3679,0,0.2473,0.2498,0.2532,0.2527,0.2527,0.2586,0.2608,0.27,0.2743,0.2952,0.2996,0.3208,0.3298,0.3538,0.3581,0.3684,0.3537,0.3611,0.3452,0.3324,0.3284,0.3143,0.3049,0.3375,0.3373,0.3372,0.3371,0,0.2499,0.2503,0.2495,0.2515,0.2518,0.255,0.2593,0.2647,0.2752,0.2872,0.3013,0.3123,0.3367,0.3417,0.3584,0.3606,0.342,0.3585,0.3496,0.3108,0.2917,0.282,0.3209,0.3359,0.336,0.3361,0.3361,0.3362,0.2485,0.2472,0.2447,0.2451,0.2452,0.2457,0.2465,0.2526,0.2607,0.2738,0.2923,0.3045,0.3219,0.3422,0.3438,0.3386,0.3365,0.3268,0.3248,0.3137,0.2952,0.3328,0.3452,0.3454,0.3455,0.3457,0.3458,0,0.2416,0.2376,0.2379,0.2338,0.2307,0.2358,0.2389,0.2382,0.2419,0.2598,0.2734,0.2901,0.2978,0.3082,0.3151,0.3065,0.2897,0.2972,0.2719,0.2661,0.3047,0.2936,0.2898,0.2898,0.2898,0.2899,0.2899,0.2899,0.235,0.2281,0.2272,0.2178,0.2167,0.2108,0.2109,0.2129,0.2218,0.2326,0.2431,0.2593,0.2802,0.2921,0.2858,0.2788,0.2557,0.246,0.2455,0.2694,0.2717,0.2739,0.2621,0.2518,0.2517,0.1928,0.1924,0.192]},{"header":{"parameterUnit":"m.s-1","parameterCategory":2,"la1":30.2991,"la2":30.254,"lo1":-89.0895,"lo2":-89.0444,"dy":0.0017,"dx":0.0017,"nx":28,"ny":28,"refTime":"2024-03-12T03:00:00:Z","depth":"0","parameterNumber":3,"parameterNumberName":"V-component_of_CURRENTS"},"data":[0,0,0,0,0,0,0,0,0,0,0,0,0,0,0,0,0,0,0,0,0,0,0,0,0,0,0,0,0,0,0,0,0,0,0,0,0,0,0,0,0,0,0,0,0,0,0,0,0,0,0,0,0,0,0,0,0,0,0.0311,0.0312,0,0.033,0.033,0.033,0.032,0.0319,0.0319,0.0318,0.0258,0.0257,0.0255,0,0,0,0,0,0,0,0,0,0,0,0,0,0.0289,0.0289,0.0311,0.0312,0.0312,0.033,0.033,0.033,0.032,0.0319,0.0319,0.0318,0.0258,0.0257,0.0255,0,0,0,0,0,0,0,0,0,0,0,0,0,0.0301,0.0289,0.0311,0.0309,0.0309,0.033,0.033,0.0331,0.032,0.0319,0.0319,0.0318,0.0259,0.0257,0.0255,0.0258,0,0,0.025,0.0249,0,0,0,0,0,0,0,0,0.03,0.0302,0.0309,0.031,0.031,0.0323,0.03,0.0302,0.032,0.0315,0.0318,0.0318,0.0273,0.027,0.0275,0.0255,0.0252,0.0249,0.0248,0.0248,0.0247,0,0,0,0,0,0,0,0.03,0.0301,0.0318,0.031,0.031,0.0315,0.0316,0.0301,0.0296,0.0316,0.0315,0.0319,0.0272,0.0277,0.0273,0.0251,0.0249,0.0248,0.0247,0.0246,0.0199,0.0199,0,0,0,0,0,0,0.0298,0.03,0.0317,0.0319,0.0304,0.0316,0.0317,0.0319,0.0297,0.0295,0.0319,0.0318,0.028,0.0276,0.0271,0.0251,0.0248,0.0246,0.0245,0.0199,0.0199,0.0199,0,0,0,0,0,0,0.0298,0.03,0.0317,0.0311,0.0313,0.0317,0.0319,0.0319,0.0324,0.0301,0.0296,0.0324,0.028,0.0274,0.025,0.0249,0.0245,0.0243,0.02,0.0199,0.0199,0.0223,0,0,0,0,0,0,0.0297,0.0299,0.0302,0.031,0.0314,0.0327,0.032,0.032,0.0328,0.0326,0.0303,0.0297,0.0279,0.0252,0.0248,0.0246,0.0242,0.02,0.02,0.0199,0.0223,0.0224,0.0225,0,0,0,0,0,0.0296,0.0305,0.0302,0.0305,0.0317,0.0328,0.033,0.033,0.0328,0.0332,0.031,0.0298,0.0247,0.0251,0.0245,0.0243,0.02,0.02,0.0199,0.0222,0.0224,0.0225,0,0,0,0,0,0,0.0301,0.0305,0.0302,0.0313,0.0318,0.0326,0.0334,0.0334,0.0324,0.0319,0.0296,0.0288,0.0268,0.0252,0.0257,0.0228,0.0222,0.022,0.0241,0.0242,0.0243,0.0265,0.0241,0,0,0,0,0,0.0303,0.0309,0.0312,0.0322,0.0325,0.033,0.0336,0.0335,0.0328,0.0325,0.0308,0.0286,0.0264,0.025,0.0231,0.0216,0.0215,0.0211,0.0212,0.0213,0.0226,0.0227,0.023,0.0198,0.0198,0.0198,0,0,0.0309,0.0313,0.0316,0.0324,0.0329,0.034,0.0332,0.0342,0.0348,0.0318,0.0316,0.0291,0.0261,0.0243,0.0232,0.0228,0.0219,0.0212,0.0214,0.0227,0.0227,0.0231,0.0234,0.0198,0.0198,0.0198,0,0,0.0332,0.0326,0.0341,0.0343,0.0351,0.035,0.0354,0.0358,0.0355,0.0348,0.0326,0.0299,0.0275,0.0251,0.0235,0.0232,0.0227,0.0225,0.0245,0.0246,0.0249,0.0252,0.0246,0.0249,0.0223,0.0223,0.0223,0,0.0343,0.036,0.0348,0.0363,0.037,0.0356,0.0375,0.037,0.0365,0.0369,0.0348,0.0317,0.0279,0.0263,0.0252,0.0235,0.0238,0.0243,0.0249,0.0252,0.0254,0.0248,0.025,0.0224,0.0224,0.0224,0.0224,0,0.0381,0.0388,0.0398,0.0409,0.0409,0.0424,0.0412,0.0414,0.0404,0.0402,0.0389,0.034,0.0329,0.0299,0.0269,0.0267,0.0263,0.0253,0.025,0.026,0.0252,0.0253,0.0226,0.0225,0.0225,0.0225,0,0,0.0451,0.0428,0.0435,0.0449,0.0436,0.0453,0.0448,0.0457,0.0491,0.0445,0.0482,0.04,0.0388,0.0369,0.0329,0.0306,0.0303,0.0288,0.0287,0.029,0.0309,0.0283,0.0283,0.0302,0.0302,0.0303,0.0294,0,0.0498,0.0522,0.0492,0.0527,0.0553,0.052,0.0533,0.0531,0.0529,0.0558,0.0492,0.051,0.0412,0.0425,0.0377,0.0342,0.0311,0.0307,0.0293,0.0293,0.0275,0.0285,0.0249,0.0236,0.0296,0.0296,0.0296,0,0.059,0.0583,0.0612,0.0615,0.0622,0.0636,0.0674,0.068,0.0688,0.0691,0.0669,0.0642,0.0595,0.0528,0.0438,0.0447,0.0378,0.0329,0.0328,0.0301,0.0271,0.0237,0.0237,0.0061,0.0299,0.0299,0.0298,0,0.0714,0.0696,0.0719,0.0718,0.0703,0.0721,0.0725,0.0739,0.0788,0.0801,0.086,0.0772,0.0787,0.0669,0.0538,0.0507,0.0456,0.0407,0.0309,0.0306,0.0272,0.0265,0.0109,0.0348,0.0348,0.0348,0.0348,0,0.0829,0.0857,0.0781,0.081,0.0867,0.0821,0.0914,0.0911,0.0954,0.1043,0.0954,0.1016,0.0831,0.0771,0.0608,0.0472,0.0509,0.0322,0.0307,0.0276,0.0271,0.0113,0.0036,0.0347,0.0348,0.0348,0.0348,0,0.1004,0.0941,0.0981,0.0942,0.0946,0.1001,0.1053,0.1124,0.1143,0.1265,0.1286,0.1236,0.1146,0.0947,0.0781,0.0603,0.0354,0.0393,0.0362,0.0343,0.0065,-0.0008,-0.0144,-0.0205,0.028,0.028,0.0279,0,0.1094,0.1128,0.1109,0.1123,0.1115,0.1173,0.1232,0.1244,0.1322,0.1406,0.1479,0.1436,0.141,0.1139,0.0813,0.053,0.0363,0.0319,0.0232,0.005,-0.0042,-0.0102,-0.0148,0.019,0.0189,0.0188,0.0187,0,0.1252,0.1241,0.1247,0.1289,0.1333,0.1408,0.1478,0.1566,0.1597,0.1691,0.1774,0.1763,0.1501,0.1192,0.0801,0.0581,0.0191,0.029,0.0112,-0.0115,-0.0199,-0.0264,0.019,0.0178,0.0179,0.018,0.018,0.0181,0.1348,0.1384,0.1374,0.1419,0.149,0.1592,0.1669,0.1741,0.1867,0.1963,0.1968,0.1944,0.151,0.0959,0.0677,0.0099,0.0132,-0.0094,-0.0162,-0.0203,-0.0285,0.0147,0.0112,0.0112,0.0113,0.0113,0.0113,0,0.1402,0.1421,0.1486,0.1527,0.1635,0.1655,0.179,0.1863,0.1985,0.2062,0.2117,0.1841,0.1334,0.0806,0.0059,-0.0301,-0.0429,-0.0495,-0.061,-0.063,-0.0244,-0.0274,-0.0407,-0.0407,-0.0407,-0.0407,-0.0407,-0.0406,0.1407,0.1447,0.1471,0.1609,0.168,0.181,0.1884,0.1996,0.2062,0.2107,0.2033,0.1973,0.1527,0.03,-0.0556,-0.0749,-0.0956,-0.1012,-0.1085,-0.0865,-0.0834,-0.0804,-0.0854,-0.1106,-0.1107,-0.1458,-0.1462,-0.1465]}],[{"header":{"parameterUnit":"m.s-1","parameterCategory":2,"la1":30.2991,"la2":30.254,"lo1":-89.0895,"lo2":-89.0444,"dy":0.0017,"dx":0.0017,"nx":28,"ny":28,"refTime":"2024-03-12T03:00:00:Z","depth":"2","parameterNumber":2,"parameterNumberName":"U-component_of_CURRENTS"},"data":[0,0,0,0,0,0,0,0,0,0,0,0,0,0,0,0,0,0,0,0,0,0,0,0,0,0,0,0,0,0,0,0,0,0,0,0,0,0,0,0,0,0,0,0,0,0,0,0,0,0,0,0,0,0,0,0,0,0,0.2085,0.2086,0,0.2123,0.2123,0.2123,0.217,0.2171,0.2173,0.2174,0.2265,0.2266,0.2267,0,0,0,0,0,0,0,0,0,0,0,0,0,0.2003,0.2004,0.2085,0.2086,0.2087,0.2123,0.2123,0.2123,0.217,0.2171,0.2173,0.2174,0.2264,0.2266,0.2267,0,0,0,0,0,0,0,0,0,0,0,0,0,0.2035,0.2004,0.2085,0.2118,0.2122,0.2123,0.2123,0.2123,0.217,0.2171,0.2173,0.2175,0.2264,0.2266,0.2268,0.2244,0,0,0.2274,0.2274,0,0,0,0,0,0,0,0,0.2033,0.2037,0.2112,0.2116,0.212,0.2148,0.2128,0.2168,0.2169,0.2146,0.2174,0.2176,0.2233,0.2237,0.2232,0.2248,0.2252,0.2274,0.2275,0.2276,0.2276,0,0,0,0,0,0,0,0.2031,0.2035,0.2095,0.2113,0.2118,0.2115,0.2121,0.2135,0.2176,0.2148,0.2153,0.2165,0.2235,0.223,0.2235,0.2253,0.2274,0.2275,0.2277,0.2277,0.233,0.233,0,0,0,0,0,0,0.2037,0.2033,0.2094,0.2097,0.2086,0.2115,0.2122,0.2133,0.2175,0.2184,0.2163,0.2167,0.2226,0.2233,0.2239,0.2295,0.2276,0.2278,0.2279,0.233,0.233,0.233,0,0,0,0,0,0,0.2035,0.2042,0.2092,0.207,0.2077,0.2116,0.2127,0.2133,0.2149,0.2186,0.2196,0.2176,0.2228,0.2236,0.2275,0.2296,0.2279,0.228,0.2329,0.233,0.233,0.2356,0,0,0,0,0,0,0.2032,0.2041,0.2044,0.207,0.2079,0.2114,0.2126,0.2133,0.2155,0.216,0.22,0.2209,0.223,0.2272,0.2277,0.2299,0.2282,0.2329,0.233,0.233,0.2355,0.2357,0.2359,0,0,0,0,0,0.2029,0.2036,0.2044,0.2052,0.2085,0.2115,0.2119,0.2148,0.2154,0.2166,0.2194,0.2209,0.2278,0.2274,0.228,0.2302,0.2329,0.2329,0.233,0.2354,0.2357,0.2359,0,0,0,0,0,0,0.2006,0.2042,0.2052,0.207,0.2099,0.2126,0.2139,0.215,0.2176,0.2191,0.2212,0.2224,0.2265,0.2272,0.2267,0.2316,0.2305,0.2307,0.2321,0.2324,0.2326,0.2352,0.2283,0,0,0,0,0,0.2,0.2013,0.2051,0.2065,0.2082,0.2107,0.212,0.2147,0.2176,0.2189,0.2219,0.2245,0.2264,0.2287,0.2308,0.2333,0.2361,0.235,0.2352,0.2354,0.2377,0.2416,0.2425,0.2332,0.2332,0.2332,0,0,0.1994,0.2016,0.2024,0.206,0.2082,0.2109,0.2119,0.2157,0.218,0.2195,0.2237,0.2256,0.2271,0.2307,0.2325,0.2323,0.2395,0.2355,0.2356,0.2379,0.2418,0.2427,0.2435,0.2332,0.2332,0.2332,0,0,0.1994,0.2012,0.2027,0.2053,0.21,0.2119,0.2133,0.2177,0.22,0.2237,0.2252,0.2293,0.2317,0.2346,0.2355,0.2379,0.2402,0.2373,0.2414,0.2451,0.2459,0.2467,0.2522,0.2535,0.2379,0.2379,0.2379,0,0.1986,0.2011,0.2036,0.2062,0.2086,0.2124,0.2152,0.2174,0.2227,0.2253,0.2262,0.2321,0.2341,0.2381,0.2396,0.2389,0.2414,0.2404,0.2456,0.2464,0.2472,0.2526,0.254,0.238,0.238,0.238,0.238,0,0.2005,0.2024,0.204,0.2081,0.2106,0.2143,0.2184,0.2219,0.225,0.2282,0.2342,0.2373,0.2414,0.2418,0.2418,0.2476,0.2478,0.2451,0.2454,0.2483,0.2538,0.2552,0.2382,0.2381,0.2381,0.2381,0,0,0.1999,0.2042,0.2048,0.2071,0.2125,0.2154,0.2192,0.2245,0.229,0.234,0.2394,0.2435,0.2469,0.2482,0.2491,0.2531,0.2609,0.252,0.2521,0.2584,0.2709,0.2636,0.2644,0.2586,0.2588,0.259,0.2729,0,0.2012,0.2053,0.2068,0.2112,0.2147,0.2183,0.222,0.2275,0.2324,0.239,0.2435,0.2495,0.2483,0.2521,0.2555,0.2603,0.2645,0.2576,0.2664,0.2668,0.2606,0.2657,0.2444,0.2543,0.2742,0.2745,0.2746,0,0.2046,0.2063,0.2105,0.215,0.2169,0.2196,0.2275,0.2316,0.2403,0.2445,0.2508,0.2548,0.2632,0.2605,0.2716,0.267,0.2697,0.2726,0.2731,0.2668,0.262,0.2543,0.2561,0.277,0.2768,0.2766,0.2764,0,0.2069,0.2099,0.2131,0.2149,0.2203,0.2227,0.2261,0.2344,0.2403,0.2493,0.2565,0.2633,0.2714,0.2746,0.2809,0.2771,0.2925,0.2873,0.2835,0.2831,0.2672,0.2649,0.2942,0.2941,0.2941,0.2941,0.294,0,0.2113,0.2124,0.2144,0.2171,0.2215,0.2251,0.2329,0.2369,0.2464,0.2546,0.2607,0.2691,0.2756,0.2843,0.2852,0.2904,0.296,0.287,0.2865,0.2673,0.265,0.2855,0.2843,0.2946,0.2945,0.2944,0.2943,0,0.2146,0.2158,0.2193,0.223,0.2238,0.2283,0.2358,0.2413,0.2513,0.2621,0.266,0.2786,0.2887,0.2941,0.3025,0.2984,0.3017,0.3009,0.2792,0.2757,0.2891,0.2878,0.2992,0.2991,0.2989,0.2989,0.2988,0,0.2172,0.2184,0.2232,0.2247,0.2258,0.2315,0.2349,0.2429,0.2486,0.2669,0.2714,0.2866,0.2912,0.3025,0.2993,0.3001,0.3039,0.2804,0.2677,0.2914,0.2898,0.2887,0.2877,0.2492,0.2487,0.2483,0.248,0,0.2183,0.2196,0.2223,0.2253,0.228,0.2311,0.2359,0.2403,0.2509,0.2593,0.2689,0.2744,0.2879,0.2786,0.2819,0.2786,0.2777,0.2723,0.3046,0.2496,0.2448,0.243,0.2436,0.2445,0.2448,0.2451,0.2453,0.2454,0.2162,0.2177,0.2202,0.2207,0.2255,0.2247,0.2233,0.2288,0.2329,0.2389,0.2523,0.2537,0.2602,0.2526,0.2469,0.2447,0.2614,0.2488,0.2498,0.2512,0.2413,0.2364,0.2329,0.2332,0.2334,0.2336,0.2338,0,0.2095,0.2091,0.2124,0.2115,0.2111,0.2177,0.2185,0.2131,0.2107,0.2218,0.2242,0.2076,0.2047,0.2138,0.2048,0.2047,0.2006,0.1971,0.1894,0.1932,0.1965,0.1834,0.1599,0.1597,0.1594,0.1592,0,0,0.2035,0.2003,0.1996,0.1928,0.1954,0.1896,0.1874,0.1824,0.1855,0.1798,0.1811,0.1938,0.2075,0.1792,0.1771,0.1677,0.1787,0.162,0.222,0.2169,0.2198,0.228,0.2125,0,0,0,0,0]},{"header":{"parameterUnit":"m.s-1","parameterCategory":2,"la1":30.2991,"la2":30.254,"lo1":-89.0895,"lo2":-89.0444,"dy":0.0017,"dx":0.0017,"nx":28,"ny":28,"refTime":"2024-03-12T03:00:00:Z","depth":"2","parameterNumber":3,"parameterNumberName":"V-component_of_CURRENTS"},"data":[0,0,0,0,0,0,0,0,0,0,0,0,0,0,0,0,0,0,0,0,0,0,0,0,0,0,0,0,0,0,0,0,0,0,0,0,0,0,0,0,0,0,0,0,0,0,0,0,0,0,0,0,0,0,0,0,0,0,0.0114,0.0114,0,0.0086,0.0085,0.0085,0.0079,0.0079,0.0079,0.008,0.0027,0.0026,0.0024,0,0,0,0,0,0,0,0,0,0,0,0,0,0.0127,0.0127,0.0114,0.0114,0.0114,0.0086,0.0085,0.0085,0.0079,0.0079,0.008,0.008,0.0028,0.0026,0.0024,0,0,0,0,0,0,0,0,0,0,0,0,0,0.011,0.0126,0.0114,0.0109,0.0108,0.0086,0.0085,0.0085,0.0079,0.0079,0.008,0.008,0.0029,0.0026,0.0023,-0.0004,0,0,0.0015,0.0014,0,0,0,0,0,0,0,0,0.0111,0.011,0.011,0.0109,0.0109,0.0088,0.0071,0.0054,0.0078,0.0088,0.008,0.008,0.0046,0.0042,0.0033,-0.0007,-0.0009,0.0015,0.0014,0.0012,0.0012,0,0,0,0,0,0,0,0.0112,0.0111,0.0101,0.011,0.0109,0.0096,0.0094,0.0067,0.0062,0.0087,0.0087,0.0087,0.0045,0.0036,0.0032,-0.001,0.0015,0.0013,0.0011,0.001,-0.0053,-0.0053,0,0,0,0,0,0,0.0121,0.0112,0.0102,0.01,0.0114,0.0095,0.0093,0.0092,0.0063,0.006,0.0086,0.0087,0.004,0.0035,0.003,0.0019,0.0012,0.001,0.0008,-0.0053,-0.0053,-0.0053,0,0,0,0,0,0,0.0121,0.012,0.0103,0.0107,0.0104,0.0095,0.0094,0.0092,0.009,0.0063,0.0059,0.0088,0.004,0.0034,0.0019,0.0017,0.0009,0.0006,-0.0053,-0.0053,-0.0053,-0.0017,0,0,0,0,0,0,0.0122,0.0121,0.0124,0.0108,0.0104,0.0101,0.0093,0.0091,0.0089,0.009,0.0063,0.0058,0.004,0.0023,0.0016,0.0013,0.0004,-0.0052,-0.0053,-0.0053,-0.0018,-0.0016,-0.0014,0,0,0,0,0,0.0122,0.013,0.0124,0.0123,0.0109,0.0101,0.0098,0.0092,0.0089,0.0091,0.0076,0.006,0.0017,0.0021,0.0013,0.0009,-0.0052,-0.0053,-0.0053,-0.0019,-0.0016,-0.0014,0,0,0,0,0,0,0.014,0.0129,0.0123,0.0127,0.0119,0.0101,0.0103,0.0095,0.0083,0.0085,0.0058,0.0053,0.0035,0.0018,0.0023,-0.001,-0.0021,-0.0023,0.0007,0.0009,0.0011,0.0035,0.0002,0,0,0,0,0,0.0143,0.0146,0.0132,0.0137,0.0133,0.0117,0.0113,0.0109,0.0096,0.0092,0.0073,0.0051,0.0025,0.0017,-0.0009,-0.0024,-0.0043,-0.0033,-0.0031,-0.0029,-0.0016,-0.005,-0.0049,-0.0054,-0.0054,-0.0054,0,0,0.0152,0.0147,0.0149,0.014,0.0132,0.0132,0.0116,0.0116,0.0119,0.0086,0.0084,0.0054,0.0021,0.0004,-0.0006,-0.0008,-0.0039,-0.0029,-0.0027,-0.0015,-0.005,-0.0049,-0.0049,-0.0054,-0.0054,-0.0054,0,0,0.0174,0.0165,0.0175,0.0168,0.0161,0.0149,0.0152,0.0137,0.0133,0.0126,0.0098,0.0076,0.0043,0.002,0.0003,0.0,-0.0031,-0.0015,0.0019,-0.0015,-0.0014,-0.0014,-0.0041,-0.0044,-0.0009,-0.0009,-0.0009,0,0.0186,0.0193,0.0177,0.0183,0.0182,0.016,0.0169,0.0159,0.0143,0.0142,0.0135,0.0083,0.0053,0.0028,0.0027,0.0006,-0.0017,0.0013,-0.0011,-0.0012,-0.0012,-0.004,-0.0043,-0.0007,-0.0007,-0.0007,-0.0008,0,0.021,0.0217,0.0222,0.0222,0.0218,0.0222,0.0206,0.0203,0.0194,0.0183,0.0163,0.0122,0.0098,0.0074,0.0051,0.0028,0.0011,-0.0009,-0.0014,-0.0009,-0.0039,-0.0043,-0.0005,-0.0005,-0.0006,-0.0006,0,0,0.023,0.024,0.024,0.025,0.0239,0.024,0.0242,0.0237,0.0249,0.0221,0.0229,0.0174,0.0156,0.0135,0.0094,0.0064,0.0034,0.0032,0.003,0.0012,-0.0038,-0.0081,-0.009,0.0006,0.0006,0.0005,-0.0058,0,0.0253,0.0278,0.0275,0.0295,0.0303,0.0287,0.0298,0.0291,0.0281,0.0283,0.0236,0.0228,0.0177,0.017,0.0128,0.0064,0.0025,0.0053,-0.0045,-0.0047,-0.0082,-0.0095,-0.006,-0.0117,-0.0062,-0.0063,-0.0063,0,0.0274,0.0286,0.0317,0.0338,0.0341,0.0354,0.0364,0.0375,0.0366,0.036,0.0335,0.0303,0.0261,0.0218,0.0112,0.0131,0.0052,-0.0005,-0.0009,-0.0061,-0.0098,-0.0113,-0.0127,-0.007,-0.007,-0.0069,-0.0069,0,0.0293,0.0314,0.0344,0.0348,0.0367,0.0384,0.0399,0.0401,0.0428,0.0416,0.0439,0.0366,0.0359,0.0247,0.013,0.0122,0.001,-0.0017,-0.0135,-0.0139,-0.0133,-0.0135,-0.0102,-0.0102,-0.0102,-0.0102,-0.0101,0,0.0326,0.0341,0.0359,0.0375,0.0416,0.042,0.0476,0.0474,0.05,0.0545,0.0491,0.0507,0.0367,0.0289,0.0156,0.0003,0.0026,-0.0129,-0.016,-0.0121,-0.0122,-0.0098,-0.0097,-0.0104,-0.0104,-0.0103,-0.0103,0,0.0355,0.0365,0.0403,0.0429,0.0432,0.0475,0.0537,0.0581,0.0599,0.0657,0.0664,0.062,0.0517,0.0359,0.0185,0.0055,-0.01,-0.0167,-0.011,-0.0134,-0.0233,-0.0229,-0.0298,-0.03,-0.0302,-0.0303,-0.0304,0,0.0372,0.0382,0.044,0.0477,0.0497,0.0553,0.0595,0.0622,0.0676,0.0728,0.0759,0.0692,0.0639,0.0372,0.0132,-0.0113,-0.0136,-0.0241,-0.0261,-0.023,-0.0254,-0.0247,-0.0241,-0.0237,-0.0237,-0.0238,-0.0238,0,0.0387,0.0415,0.0461,0.052,0.0574,0.064,0.07,0.0761,0.0813,0.0849,0.0876,0.0841,0.0622,0.039,0.007,-0.0093,-0.0201,-0.0261,-0.0238,-0.0199,-0.018,-0.0201,-0.0195,-0.0242,-0.0242,-0.0242,-0.0241,-0.0241,0.0372,0.0435,0.0488,0.0544,0.0605,0.0685,0.0759,0.0844,0.0909,0.0985,0.0939,0.091,0.068,0.0275,0.0006,-0.0254,-0.0256,-0.0341,-0.0336,-0.0331,-0.0319,-0.0306,-0.0389,-0.0389,-0.0389,-0.039,-0.039,0,0.0319,0.04,0.0487,0.0542,0.0596,0.0663,0.0783,0.0862,0.0951,0.1042,0.104,0.081,0.0568,0.0321,-0.0067,-0.0326,-0.0323,-0.0396,-0.0325,-0.032,-0.0315,-0.03,-0.0365,-0.0366,-0.0366,-0.0367,0,0,0.027,0.0335,0.0406,0.0471,0.0551,0.0653,0.0753,0.0881,0.0977,0.1047,0.1064,0.0998,0.0693,0.0413,0.0073,-0.0132,-0.0167,-0.0178,-0.0173,-0.0044,-0.0036,-0.0263,-0.0231,0,0,0,0,0]}],[{"header":{"parameterUnit":"m.s-1","parameterCategory":2,"la1":30.2991,"la2":30.254,"lo1":-89.0895,"lo2":-89.0444,"dy":0.0017,"dx":0.0017,"nx":28,"ny":28,"refTime":"2024-03-12T03:00:00:Z","depth":"4","parameterNumber":2,"parameterNumberName":"U-component_of_CURRENTS"},"data":[0,0,0,0,0,0,0,0,0,0,0,0,0,0,0,0,0,0,0,0,0,0,0,0,0,0,0,0,0,0,0,0,0,0,0,0,0,0,0,0,0,0,0,0,0,0,0,0,0,0,0,0,0,0,0,0,0,0,0.12,0.12,0,0.1169,0.1169,0.1169,0.1169,0.117,0.117,0.117,0.1126,0.1124,0.1123,0,0,0,0,0,0,0,0,0,0,0,0,0,0.1236,0.1236,0.1201,0.12,0.1199,0.1169,0.1169,0.1169,0.1169,0.117,0.117,0.117,0.1126,0.1125,0.1123,0,0,0,0,0,0,0,0,0,0,0,0,0,0.1217,0.1236,0.1201,0.1194,0.1193,0.1169,0.1169,0.1168,0.1169,0.117,0.117,0.117,0.1127,0.1125,0.1123,0.1105,0,0,0.1117,0.1116,0,0,0,0,0,0,0,0,0.1218,0.1216,0.1196,0.1194,0.1193,0.1171,0.1165,0.1146,0.1169,0.1181,0.117,0.117,0.1138,0.1135,0.1132,0.1103,0.1101,0.1116,0.1115,0.1114,0.1114,0,0,0,0,0,0,0,0.1219,0.1217,0.1191,0.1195,0.1193,0.1183,0.1182,0.1161,0.116,0.118,0.118,0.1171,0.1137,0.1134,0.1131,0.11,0.1116,0.1115,0.1113,0.1113,0.114,0.1142,0,0,0,0,0,0,0.1219,0.1218,0.1192,0.119,0.1203,0.1183,0.1181,0.118,0.1161,0.1157,0.1171,0.1172,0.1138,0.1134,0.113,0.1175,0.1114,0.1112,0.1111,0.1139,0.1141,0.1143,0,0,0,0,0,0,0.122,0.1217,0.1193,0.1201,0.1197,0.1182,0.1181,0.1179,0.1202,0.1154,0.1151,0.1198,0.1138,0.1132,0.1141,0.1171,0.1112,0.111,0.1136,0.1139,0.1142,0.1223,0,0,0,0,0,0,0.1221,0.1218,0.1238,0.1201,0.1196,0.119,0.118,0.1178,0.1193,0.1194,0.1175,0.1169,0.1138,0.1145,0.1139,0.1167,0.1108,0.1134,0.1138,0.1141,0.1217,0.1228,0.1237,0,0,0,0,0,0.1223,0.1238,0.124,0.1237,0.1218,0.119,0.1187,0.1179,0.1194,0.1202,0.1203,0.1171,0.1165,0.1145,0.1138,0.1165,0.1132,0.1136,0.1141,0.1213,0.1226,0.1237,0,0,0,0,0,0,0.1257,0.1238,0.1239,0.1248,0.1228,0.1189,0.1201,0.1199,0.1207,0.1221,0.1188,0.1183,0.1211,0.1178,0.1157,0.1188,0.1146,0.1149,0.1204,0.1215,0.1225,0.1223,0.1106,0,0,0,0,0,0.1275,0.1292,0.1257,0.1268,0.1262,0.1242,0.124,0.1232,0.1221,0.1227,0.1201,0.1198,0.122,0.121,0.1208,0.121,0.1208,0.1228,0.1238,0.1246,0.1242,0.1283,0.1296,0.1157,0.1157,0.1157,0,0,0.1289,0.1285,0.1293,0.1279,0.1268,0.126,0.1244,0.1243,0.1255,0.1219,0.1231,0.1234,0.1234,0.1251,0.1258,0.1225,0.1288,0.1251,0.1258,0.125,0.1289,0.1303,0.1315,0.116,0.116,0.1159,0,0,0.1311,0.1324,0.1339,0.1327,0.1314,0.1297,0.1305,0.1271,0.1284,0.13,0.1293,0.1309,0.131,0.1303,0.1313,0.1373,0.1353,0.1381,0.1407,0.1448,0.146,0.147,0.1499,0.151,0.1368,0.1368,0.1368,0,0.1332,0.1345,0.1337,0.1339,0.1337,0.1319,0.1323,0.133,0.1304,0.1317,0.132,0.1355,0.1341,0.1382,0.1401,0.1393,0.1413,0.1362,0.1461,0.147,0.1479,0.1506,0.1518,0.1373,0.1372,0.1372,0.1371,0,0.1343,0.1367,0.1372,0.1376,0.1372,0.1374,0.1365,0.1372,0.1393,0.1392,0.1444,0.1439,0.1456,0.1462,0.1452,0.1505,0.15,0.1483,0.1429,0.1498,0.1522,0.1533,0.1379,0.1378,0.1376,0.1375,0,0,0.1329,0.1378,0.1378,0.1398,0.1397,0.1386,0.142,0.1431,0.1466,0.1472,0.1519,0.1553,0.155,0.1559,0.1547,0.1562,0.1641,0.1547,0.1547,0.1572,0.1738,0.1624,0.1625,0.1652,0.1654,0.1655,0.1735,0,0.1336,0.1371,0.139,0.1416,0.1421,0.1434,0.1463,0.1477,0.151,0.1541,0.1571,0.1619,0.1593,0.1619,0.1636,0.1648,0.1673,0.1621,0.167,0.1671,0.1558,0.1634,0.1662,0.1743,0.1745,0.1747,0.1748,0,0.1305,0.1345,0.1384,0.1445,0.145,0.1472,0.1515,0.1544,0.1593,0.1626,0.1672,0.1696,0.1737,0.1711,0.1771,0.1747,0.1751,0.1749,0.1752,0.1619,0.1577,0.1656,0.1768,0.1766,0.1765,0.1764,0.1762,0,0.1249,0.1323,0.1369,0.1381,0.1445,0.1484,0.1523,0.1567,0.1607,0.1685,0.1725,0.1782,0.183,0.1855,0.1854,0.1835,0.191,0.1883,0.1784,0.1776,0.1817,0.1805,0.1928,0.1928,0.1928,0.1928,0.1928,0,0.1205,0.1238,0.1362,0.1372,0.1433,0.1485,0.155,0.1589,0.167,0.1711,0.1772,0.1813,0.1874,0.1913,0.19,0.1877,0.1959,0.1801,0.1793,0.1851,0.1842,0.1825,0.1812,0.1931,0.193,0.193,0.1929,0,0.1105,0.1189,0.1239,0.1355,0.1398,0.1434,0.1557,0.1597,0.1689,0.175,0.1786,0.1872,0.1927,0.1957,0.2,0.193,0.1919,0.1885,0.1955,0.1947,0.1749,0.1739,0.1797,0.1794,0.1791,0.1789,0.1787,0,0.1054,0.1077,0.1206,0.1241,0.1303,0.1392,0.1445,0.1574,0.1618,0.176,0.1771,0.1879,0.1916,0.1885,0.1931,0.1922,0.1883,0.1869,0.1793,0.1751,0.1738,0.1733,0.1727,0.1782,0.1782,0.1781,0.178,0,0.0951,0.1011,0.1053,0.1138,0.1213,0.129,0.1391,0.1424,0.1564,0.1677,0.1713,0.1742,0.1797,0.1817,0.1825,0.1807,0.1875,0.184,0.1844,0.1773,0.1734,0.1722,0.172,0.1771,0.1772,0.1773,0.1773,0,0.0869,0.0881,0.0953,0.1019,0.1099,0.1156,0.1235,0.1313,0.1387,0.1557,0.1572,0.1673,0.1782,0.1759,0.1764,0.1745,0.1711,0.1635,0.1649,0.1661,0.1575,0.1503,0.1473,0,0,0,0,0,0.0785,0.0805,0.0839,0.0907,0.0976,0.1044,0.1174,0.1261,0.1425,0.1407,0.1487,0.1527,0.1557,0.1612,0.1564,0.1701,0.1713,0.1637,0.1631,0.1717,0.1728,0.1638,0,0,0,0,0,0,0.0737,0.0763,0.0796,0.0795,0.0829,0.0914,0.1,0.1118,0.1121,0.1282,0.1303,0.1423,0.147,0.1559,0.1528,0.1545,0.1507,0.1712,0.1708,0.1711,0.1721,0.173,0.1641,0,0,0,0,0]},{"header":{"parameterUnit":"m.s-1","parameterCategory":2,"la1":30.2991,"la2":30.254,"lo1":-89.0895,"lo2":-89.0444,"dy":0.0017,"dx":0.0017,"nx":28,"ny":28,"refTime":"2024-03-12T03:00:00:Z","depth":"4","parameterNumber":3,"parameterNumberName":"V-component_of_CURRENTS"},"data":[0,0,0,0,0,0,0,0,0,0,0,0,0,0,0,0,0,0,0,0,0,0,0,0,0,0,0,0,0,0,0,0,0,0,0,0,0,0,0,0,0,0,0,0,0,0,0,0,0,0,0,0,0,0,0,0,0,0,0.0052,0.0052,0,0.0008,0.0008,0.0007,-0.0018,-0.0018,-0.0018,-0.0018,-0.0113,-0.0116,-0.0118,0,0,0,0,0,0,0,0,0,0,0,0,0,0.0077,0.0076,0.0052,0.0052,0.0051,0.0008,0.0008,0.0007,-0.0018,-0.0018,-0.0018,-0.0018,-0.0112,-0.0115,-0.0118,0,0,0,0,0,0,0,0,0,0,0,0,0,0.0052,0.0076,0.0052,0.0034,0.0032,0.0008,0.0008,0.0007,-0.0018,-0.0018,-0.0018,-0.0018,-0.0111,-0.0115,-0.0119,-0.0142,0,0,-0.013,-0.0132,0,0,0,0,0,0,0,0,0.0053,0.0051,0.0037,0.0035,0.0033,0.0001,-0.0018,-0.0045,-0.0018,-0.0,-0.0018,-0.0018,-0.0079,-0.0086,-0.0094,-0.0146,-0.015,-0.0131,-0.0133,-0.0135,-0.0136,0,0,0,0,0,0,0,0.0055,0.0053,0.0034,0.0037,0.0034,0.0015,0.0012,-0.0024,-0.0041,-0.0002,-0.0003,-0.0007,-0.0081,-0.0091,-0.0097,-0.0152,-0.0131,-0.0134,-0.0136,-0.0138,-0.0239,-0.024,0,0,0,0,0,0,0.0064,0.0054,0.0035,0.0033,0.0044,0.0015,0.0011,0.0011,-0.0039,-0.0046,-0.0007,-0.0008,-0.0084,-0.0092,-0.01,-0.0127,-0.0135,-0.0138,-0.014,-0.0239,-0.0239,-0.024,0,0,0,0,0,0,0.0065,0.0063,0.0037,0.0043,0.0038,0.0015,0.0014,0.001,0.0003,-0.0042,-0.005,-0.0009,-0.0084,-0.0095,-0.0135,-0.0131,-0.014,-0.0143,-0.0238,-0.0239,-0.024,-0.0183,0,0,0,0,0,0,0.0066,0.0064,0.0067,0.0044,0.0038,0.0027,0.0014,0.0009,0.0001,-0.0001,-0.0047,-0.0056,-0.0085,-0.0129,-0.0139,-0.0137,-0.0146,-0.0238,-0.0239,-0.0239,-0.0185,-0.0182,-0.018,0,0,0,0,0,0.0067,0.0073,0.0068,0.0066,0.0044,0.0027,0.0023,0.0005,0.0001,-0.0001,-0.0037,-0.0054,-0.0141,-0.0133,-0.0144,-0.0143,-0.0237,-0.0238,-0.0239,-0.0186,-0.0182,-0.018,0,0,0,0,0,0,0.0084,0.007,0.0064,0.0065,0.005,0.0024,0.0022,0.001,-0.0019,-0.0021,-0.0063,-0.0075,-0.0109,-0.0137,-0.0127,-0.0176,-0.0191,-0.0194,-0.0147,-0.0144,-0.0142,-0.0116,-0.0149,0,0,0,0,0,0.0091,0.0094,0.0073,0.0075,0.0069,0.0047,0.0039,0.0027,-0.0001,-0.0012,-0.0045,-0.0085,-0.0122,-0.0141,-0.018,-0.0206,-0.0233,-0.0213,-0.0211,-0.0208,-0.0196,-0.0239,-0.0238,-0.0243,-0.0243,-0.0243,0,0,0.0097,0.0091,0.0092,0.0079,0.0067,0.0062,0.0042,0.0034,0.0031,-0.002,-0.0038,-0.008,-0.0129,-0.016,-0.0177,-0.0181,-0.0223,-0.021,-0.0207,-0.0196,-0.024,-0.0239,-0.0239,-0.0244,-0.0243,-0.0243,0,0,0.0113,0.0108,0.0115,0.0105,0.0091,0.0077,0.0078,0.0052,0.0042,0.0018,-0.0021,-0.0059,-0.0112,-0.0146,-0.017,-0.0178,-0.0211,-0.0192,-0.0154,-0.0196,-0.0195,-0.0195,-0.0231,-0.0234,-0.0187,-0.0187,-0.0187,0,0.0122,0.0127,0.0113,0.0115,0.0112,0.0088,0.0091,0.0078,0.0042,0.0031,0.002,-0.0061,-0.0102,-0.0141,-0.0141,-0.017,-0.0198,-0.0158,-0.019,-0.0191,-0.0192,-0.0228,-0.0233,-0.0184,-0.0184,-0.0185,-0.0185,0,0.0136,0.0143,0.0146,0.0144,0.0139,0.0137,0.0119,0.011,0.0096,0.0075,0.0037,-0.002,-0.0066,-0.0086,-0.0114,-0.0142,-0.0161,-0.0183,-0.0191,-0.0187,-0.0227,-0.0233,-0.018,-0.0181,-0.0182,-0.0183,0,0,0.0133,0.0155,0.0153,0.0161,0.0154,0.0148,0.0151,0.0137,0.0134,0.01,0.0087,0.0028,-0.0002,-0.0031,-0.0076,-0.0105,-0.0137,-0.0136,-0.014,-0.0159,-0.0224,-0.0214,-0.0219,-0.0164,-0.0164,-0.0165,-0.0249,0,0.0143,0.0166,0.0172,0.0185,0.0188,0.0181,0.0186,0.0171,0.0152,0.0131,0.0083,0.0047,0.0019,-0.0006,-0.0038,-0.0117,-0.0149,-0.0111,-0.0235,-0.0239,-0.022,-0.0224,-0.0167,-0.0254,-0.0255,-0.0256,-0.0257,0,0.0128,0.0153,0.0176,0.0205,0.0206,0.0215,0.0212,0.0216,0.0188,0.0172,0.0139,0.0095,0.0046,0.0019,-0.0086,-0.006,-0.013,-0.0186,-0.0192,-0.0202,-0.0239,-0.0261,-0.0267,-0.0267,-0.0266,-0.0265,-0.0264,0,0.0097,0.0141,0.0166,0.0172,0.0204,0.0217,0.0234,0.0221,0.0224,0.0194,0.0181,0.0121,0.0082,0.0001,-0.0103,-0.0099,-0.0222,-0.024,-0.0298,-0.0298,-0.0306,-0.0305,-0.0315,-0.0315,-0.0315,-0.0314,-0.0314,0,0.0076,0.009,0.0159,0.0163,0.0194,0.0219,0.0235,0.0239,0.0243,0.0246,0.02,0.0178,0.0076,-0.0005,-0.0095,-0.0207,-0.0221,-0.0286,-0.0317,-0.0282,-0.0278,-0.031,-0.0309,-0.0318,-0.0317,-0.0316,-0.0316,0,0.0017,0.006,0.0086,0.0149,0.0171,0.0188,0.0245,0.0259,0.0265,0.0267,0.0261,0.0208,0.0118,0.0006,-0.0136,-0.02,-0.0311,-0.0354,-0.0302,-0.033,-0.0362,-0.0356,-0.0417,-0.0417,-0.0417,-0.0417,-0.0418,0,-0.0007,0.0002,0.0067,0.0092,0.0123,0.0169,0.0202,0.0249,0.0275,0.0285,0.0287,0.0213,0.0163,-0.0017,-0.0139,-0.0308,-0.0334,-0.0392,-0.0371,-0.0346,-0.0371,-0.0366,-0.036,-0.0418,-0.0418,-0.0418,-0.0418,0,-0.0039,-0.0022,0.0011,0.007,0.0113,0.016,0.0225,0.0251,0.0313,0.0304,0.0315,0.0237,0.0132,0.0001,-0.0135,-0.0258,-0.0349,-0.0395,-0.0395,-0.0376,-0.0349,-0.0372,-0.0366,-0.0419,-0.0419,-0.0419,-0.0419,0,-0.0048,-0.0036,0.0025,0.0074,0.0122,0.0184,0.0201,0.027,0.031,0.0347,0.0342,0.0248,0.0193,0.0024,-0.0102,-0.0217,-0.0244,-0.0277,-0.0284,-0.0284,-0.0217,-0.0162,-0.0196,0,0,0,0,0,-0.0026,0.0014,0.0043,0.012,0.0156,0.0196,0.0249,0.0272,0.0327,0.0345,0.0361,0.0276,0.0123,0.0047,-0.0064,-0.0131,-0.0286,-0.0266,-0.0332,-0.0424,-0.0423,-0.0365,0,0,0,0,0,0,0.0014,0.0048,0.0062,0.0162,0.0208,0.0274,0.0304,0.0321,0.0343,0.0367,0.0285,0.0255,0.0094,0.0196,-0.0059,-0.0097,-0.0153,-0.0342,-0.0344,-0.0424,-0.0424,-0.0423,-0.0363,0,0,0,0,0]}]]